Location: Newark
(42.1667°N, 14.5667°E)
Time: 00:56:25
(UTC+00:00)

Envisat - Pass Details

Date: 28 January 2020
Orbit: 764 x 766 km, 98.1° (Epoch: 20 February)

Event Time Altitude Azimuth Distance (km) Brightness Sun altitude
Rises 04:21:43 0° 33° (NNE) 3,239 6.6 -21.8°
Reaches altitude 10° 04:25:13 10° 58° (ENE) 2,306 6.2 -21.2°
Maximum altitude 04:27:51 14° 89° (E) 2,028 6.2 -20.7°
Drops below altitude 10° 04:30:28 10° 121° (ESE) 2,297 6.4 -20.2°
Sets 04:33:55 0° 146° (SE) 3,217 6.8 -19.6°
